Temperature
16 16 16 17 17 17 19 21 23 22 23 23 22 22 22 21 20 18 17 16 16 16 16 16 16 16 16 16 15 15 15 15 15 15 15 15 15 15 15 15 15 15 14 14 14 14 14 14 14
16 15 16 17 17 18 19 21 22 22 22 22 21 22 21 20 18 17 16 16 16 16 16 16 16 16 16 16 15 15 15 15 15 15 15 15 15 15 15 15 15 14 14 14 14 14 14 14 14
15 15 16 17 18 18 20 21 21 21 21 21 21 21 20 19 17 16 16 16 16 16 16 16 16 15 15 15 15 15 15 15 15 15 15 15 14 14 14 14 14 14 14 14 14 14 14 14 14
15 15 17 17 18 19 20 21 21 21 20 20 20 20 18 18 17 16 16 16 15 15 15 16 15 15 15 15 15 15 15 15 15 15 15 14 14 14 14 14 14 14 14 14 14 14 14 14 14
15 16 16 17 18 19 20 21 21 20 20 20 20 19 17 17 16 16 15 15 15 15 15 15 15 15 15 15 15 15 15 15 15 15 14 14 14 14 14 14 14 14 14 14 14 14 14 14 14
15 17 16 16 18 19 20 21 20 20 20 19 19 18 17 16 16 15 15 15 15 15 15 15 15 15 15 15 15 15 15 15 15 14 14 14 14 14 14 14 14 14 14 14 14 14 14 14 13
15 15 16 17 18 19 20 20 20 19 19 19 19 18 16 15 15 15 14 14 14 14 14 15 15 15 14 14 14 14 14 14 14 14 14 14 14 14 14 14 14 14 13 13 13 13 13 13 13
14 15 16 17 17 18 19 19 19 19 18 18 18 17 16 14 14 14 14 14 14 14 14 14 14 14 14 14 14 14 14 14 14 14 14 14 14 14 14 14 13 13 13 13 13 13 13 13 13
14 14 14 16 17 17 18 18 18 17 17 17 16 16 15 14 14 14 14 13 13 13 13 14 14 14 14 14 14 14 14 14 14 14 14 13 13 13 13 13 13 13 13 13 13 13 13 13 13
14 13 14 16 16 16 17 17 17 16 16 16 15 15 14 14 13 13 13 13 13 13 13 13 13 13 13 13 13 13 13 13 13 13 13 13 13 13 13 13 13 13 13 13 13 13 12 12 12
14 13 15 15 15 15 15 15 15 15 15 15 15 14 13 13 13 13 13 13 12 13 13 13 13 13 13 13 13 13 13 13 13 13 13 13 13 13 13 13 13 13 13 13 12 12 12 12 12
14 14 14 14 14 14 14 14 14 14 14 14 14 14 13 12 12 12 12 12 12 12 12 12 12 13 13 12 13 13 13 13 12 12 12 13 13 12 12 12 12 12 12 12 12 12 12 12 11
13 13 13 13 13 13 13 13 13 13 13 13 13 13 12 12 12 12 12 12 12 12 12 12 12 12 12 12 12 12 12 12 12 12 12 12 12 12 12 12 12 12 12 12 12 12 11 11 11
13 13 13 13 13 12 12 12 12 12 12 12 12 12 12 12 11 11 12 12 12 12 12 12 12 12 12 12 12 12 12 12 12 12 12 12 12 12 12 12 12 11 11 11 11 11 11 11 11
12 11 12 12 12 12 12 11 11 12 12 12 12 12 12 11 11 11 11 11 11 11 11 11 11 11 11 11 11 11 11 11 11 11 11 11 12 12 12 11 11 11 11 11 11 11 11 11 11
12 11 10 12 12 12 11 10 11 12 12 11 11 11 12 11 11 11 11 11 11 11 11 11 11 11 11 11 11 11 11 11 11 11 11 11 11 11 11 11 11 11 11 11 10 10 10 10 10
11 10 10 11 12 12 10 10 11 12 12 11 11 11 11 11 11 11 10 10 10 10 11 11 11 11 11 11 11 11 11 11 11 11 11 11 11 11 11 11 11 11 10 10 10 10 10 10 10
10 10 11 11 11 11 10 10 10 11 11 11 11 11 11 10 10 10 10 10 10 10 10 10 10 10 10 10 10 10 10 10 10 10 10 11 11 11 11 11 10 10 10 10 10 10 10 10 10
10 10 10 11 11 10 10 10 10 11 11 10 11 11 10 10 10 10 9 9 9 9 9 10 10 10 10 10 10 10 10 10 10 10 10 10 10 10 10 10 10 10 10 10 10 10 9 9 9
10 9 9 10 10 10 9 9 10 10 10 10 10 10 10 10 10 9 9 9 9 9 9 9 9 9 9 9 9 9 9 9 9 9 9 10 10 10 10 10 10 9 9 9 9 9 9 9 9
9 8 8 9 9 9 9 8 9 10 10 10 10 10 9 9 9 9 8 8 8 8 9 9 9 9 9 9 9 9 9 9 9 9 9 9 9 9 9 9 9 9 9 9 9 9 9 9 9
8 9 8 8 7 7 8 6 9 9 9 9 9 9 9 9 8 8 8 8 8 8 8 8 8 8 8 8 8 8 9 8 8 8 9 9 9 9 9 9 9 9 9 9 9 9 9 8 8
7 8 8 8 7 6 7 6 7 9 9 9 9 9 9 8 8 8 7 7 7 7 7 8 8 8 8 8 8 8 8 8 8 8 8 8 8 8 8 8 8 8 8 8 8 8 8 8 8
7 7 7 7 6 5 6 6 7 8 9 9 8 9 8 8 7 7 7 7 7 7 7 7 7 7 7 7 7 7 7 7 7 7 7 8 8 8 8 8 8 8 8 8 8 8 7 8 8
6 5 5 5 5 5 8 7 7 9 9 9 8 8 8 7 7 6 6 6 6 6 6 7 7 7 7 7 7 7 7 7 7 7 7 7 7 7 7 7 7 7 7 7 7 7 7 7 7
5 5 5 5 5 6 7 6 7 8 8 8 8 8 7 7 6 6 5 5 5 5 6 6 6 6 6 6 6 6 6 6 6 6 6 6 7 7 7 7 7 7 7 7 7 7 7 7 7
5 5 6 5 5 5 6 7 8 8 7 7 7 7 7 6 6 5 5 5 4 5 5 5 5 6 6 6 6 6 6 6 6 6 6 6 6 6 6 6 6 6 6 7 7 7 7 7 6
5 5 4 4 4 5 6 6 6 6 6 6 6 6 6 6 5 5 4 4 4 4 4 4 5 5 5 5 5 5 5 5 6 6 6 6 6 6 6 6 6 6 6 6 6 6 6 6 6
4 4 4 4 4 4 5 6 7 6 6 5 5 6 5 5 4 4 4 4 4 4 4 4 4 4 5 5 5 5 5 5 5 5 5 5 5 5 5 5 5 5 5 5 5 5 5 5 5
5 5 4 3 3 4 3 4 7 6 6 5 5 5 5 4 4 4 3 3 3 3 3 3 3 4 4 4 4 4 4 5 5 5 5 5 5 5 5 5 5 5 5 5 5 5 5 5 5
Wind_Speed
13 12 7 3 3 5 8 7 5 1 0 3 5 4 4 4 4 5 3 2 8 10 11 12 11 12 11 10 10 10 10 10 10 10 10 10 9 9 9 9 9 9 10 11 12 12 12 12 12
12 7 4 3 5 7 7 8 5 1 2 4 4 3 3 4 6 7 4 3 7 10 11 10 11 11 11 10 10 10 9 9 10 10 9 9 9 9 9 9 9 9 10 11 11 11 11 11 11
10 7 4 4 5 7 5 1 2 3 4 2 2 2 2 3 5 4 4 4 6 9 11 11 11 10 10 10 10 10 9 9 9 9 9 9 9 9 9 8 9 9 10 10 10 10 10 10 10
4 3 4 6 10 8 6 2 2 2 3 2 2 3 3 4 4 5 4 5 6 8 10 11 11 10 9 9 9 9 9 9 9 9 9 8 8 9 9 8 8 9 9 10 10 9 10 10 9
4 4 6 8 11 7 5 3 1 0 1 1 1 2 3 5 8 7 4 4 5 6 9 11 11 10 9 9 9 9 9 9 9 9 9 9 9 9 9 9 9 9 9 9 9 9 9 9 8
3 4 6 9 10 7 5 2 1 3 1 1 2 2 2 5 6 5 4 3 4 6 7 9 10 10 9 9 9 9 9 9 9 9 9 9 9 9 9 9 8 8 9 9 8 8 8 8 7
4 4 7 8 8 6 3 1 2 3 2 2 2 1 3 5 4 4 3 3 4 5 6 6 8 8 9 9 9 9 9 8 9 8 8 9 9 9 9 9 9 8 8 8 8 8 8 7 6
4 4 7 8 8 6 2 2 2 3 2 1 2 1 2 3 3 4 4 3 4 4 5 4 5 5 5 6 8 8 8 8 8 8 8 9 9 9 9 9 8 8 8 8 7 7 7 7 5
3 4 6 6 5 4 1 2 2 3 2 1 2 3 4 6 4 3 3 2 2 3 3 3 3 4 3 4 6 6 7 7 8 8 9 9 8 8 8 9 9 8 8 7 7 7 6 5 4
3 5 6 4 4 5 3 3 3 2 3 2 1 3 6 5 3 3 2 2 2 2 2 3 3 3 3 3 4 4 4 5 6 7 8 7 6 7 8 9 9 8 7 6 5 5 5 4 3
3 5 5 6 7 7 5 4 3 4 4 3 2 2 4 3 2 3 2 2 2 3 2 2 2 2 2 2 2 2 3 3 4 6 7 7 6 7 7 7 7 7 6 5 4 3 3 2 3
4 6 6 6 6 6 6 5 4 5 4 4 2 2 4 3 3 3 3 2 2 2 2 1 2 2 2 2 2 2 2 2 2 4 6 6 4 4 4 4 5 5 5 4 4 2 2 3 3
7 6 6 5 5 5 6 6 5 6 4 4 3 1 3 4 4 4 2 1 2 2 3 2 1 2 1 2 2 2 2 2 2 2 4 6 4 4 4 3 3 4 4 4 3 2 3 3 3
4 5 6 5 5 5 6 7 6 6 3 3 3 3 4 5 5 3 2 2 2 2 2 2 2 2 2 2 1 1 1 3 3 3 3 5 5 4 4 3 3 3 4 4 3 2 3 3 3
4 5 7 6 6 4 4 7 8 7 4 4 5 5 5 5 4 4 3 3 3 2 2 2 2 1 2 2 2 1 1 2 2 2 3 4 4 5 4 3 3 3 4 4 3 3 3 2 2
5 5 5 4 5 4 3 8 6 4 5 5 5 4 4 5 5 4 3 3 3 2 2 2 2 2 2 2 1 1 2 2 2 2 3 4 5 5 4 4 3 3 3 3 3 2 2 2 2
5 5 7 5 4 3 5 7 5 2 4 4 5 4 3 3 3 3 3 2 2 3 2 2 2 2 2 2 2 2 2 2 2 2 2 3 4 5 4 4 4 5 3 3 3 2 2 2 1
5 6 7 6 3 4 6 7 5 2 3 4 4 3 3 3 2 2 2 2 2 2 3 2 2 2 2 2 2 2 2 2 2 2 2 3 3 4 4 3 4 4 4 3 2 3 2 2 2
7 8 9 7 3 4 7 9 8 5 4 4 4 3 4 3 2 2 2 2 2 2 2 2 2 1 1 2 2 2 2 2 2 2 3 3 3 3 3 3 4 4 4 4 4 3 3 2 2
8 9 9 6 3 6 7 10 9 6 4 4 4 4 3 2 3 3 2 2 2 2 2 1 1 2 1 1 2 2 2 2 2 2 2 3 3 3 3 4 3 3 4 4 4 4 2 1 2
7 7 7 8 7 7 7 9 8 6 5 5 4 4 2 2 2 2 2 2 2 1 1 1 1 1 2 2 2 2 2 2 1 2 2 2 3 3 3 4 4 3 3 4 4 4 4 3 2
6 5 7 8 6 5 4 7 6 5 5 6 5 3 3 2 1 2 2 2 2 1 1 1 1 1 1 2 2 3 3 2 2 2 2 2 3 3 2 3 4 3 3 4 4 3 3 4 3
5 5 7 8 6 7 6 6 6 3 5 5 4 3 2 1 1 2 1 2 1 1 2 1 1 1 1 1 2 3 3 2 2 3 3 3 3 3 3 3 3 3 3 3 3 3 3 3 3
4 5 5 5 4 7 8 7 6 3 5 4 3 2 1 1 2 2 1 1 1 1 2 2 1 1 1 2 2 2 3 4 4 3 4 3 2 2 3 3 3 2 2 3 4 4 4 3 3
3 1 1 2 4 6 4 5 6 3 1 1 2 2 1 2 3 2 1 1 0 1 1 1 2 1 1 2 2 3 3 4 4 4 4 3 2 2 2 2 2 2 2 2 3 3 3 3 3
3 2 3 4 4 4 3 5 3 1 2 3 2 2 2 2 2 2 1 1 1 1 1 1 1 1 1 2 2 2 2 2 2 3 3 3 2 2 3 3 2 3 3 2 2 2 2 3 3
3 4 3 3 5 5 4 3 2 1 2 2 2 3 3 2 2 2 2 1 1 1 0 1 1 1 1 1 2 2 3 2 2 3 3 2 2 2 3 3 2 3 3 2 2 2 2 2 3
3 2 1 2 4 6 5 4 3 0 1 1 2 2 2 2 2 2 2 2 1 1 1 1 0 1 1 0 1 2 2 2 2 2 3 3 3 3 3 3 3 2 2 2 2 2 2 2 1
3 3 3 3 4 3 5 3 0 2 1 2 2 2 2 2 2 2 2 2 2 2 1 1 0 0 1 1 1 1 2 2 3 3 2 3 3 3 3 3 3 2 2 2 2 2 2 2 1
4 4 4 3 5 4 4 4 2 3 3 3 3 3 4 4 3 2 2 2 2 2 1 1 1 0 0 1 1 1 2 2 2 3 3 2 3 3 3 3 3 3 2 2 2 2 2 2 1
Wind_Direction
295 270 250 243 241 231 238 240 245 219 18 30 18 16 22 14 27 105 135 66 107 120 123 133 136 135 133 130 130 129 127 124 121 116 113 108 105 105 101 96 92 92 89 88 87 85 82 82 81
291 277 261 238 237 231 236 228 227 204 75 58 40 10 28 54 68 100 103 81 111 117 119 127 135 137 135 133 132 132 132 130 127 122 119 114 109 110 106 100 96 94 92 91 87 87 84 83 83
277 268 246 231 231 234 246 280 86 77 83 90 89 33 20 59 76 91 105 117 109 113 116 125 132 136 138 137 136 136 137 135 130 128 124 119 114 111 108 104 101 97 95 95 91 89 89 87 84
267 236 240 241 243 244 265 310 62 79 77 75 107 103 84 56 60 78 98 110 113 118 117 125 135 136 139 141 140 139 142 141 135 131 127 126 121 116 111 105 102 103 101 98 95 93 93 88 85
248 243 232 235 245 255 279 324 53 136 151 156 237 164 104 67 76 79 86 98 101 109 112 128 137 139 138 142 147 144 144 143 141 136 133 130 125 119 112 108 104 104 106 103 100 96 93 91 88
249 244 238 236 241 241 242 251 266 254 212 160 239 243 127 94 79 83 83 90 96 108 106 128 140 141 144 140 142 147 148 145 145 143 138 137 130 123 116 112 108 105 107 106 105 102 96 94 91
260 249 247 256 256 251 259 308 234 262 244 242 267 265 126 91 81 86 80 77 87 94 102 116 140 145 148 145 140 146 150 146 145 142 140 139 133 126 119 114 110 107 111 110 107 104 102 97 92
286 278 252 253 261 265 288 315 313 310 290 339 316 264 142 115 97 88 79 74 86 94 101 105 121 131 142 144 146 145 148 148 145 140 135 135 132 128 125 120 115 110 110 112 112 111 109 103 97
282 254 251 257 265 283 344 317 313 337 327 339 359 16 83 111 108 98 90 88 99 99 111 108 108 105 118 140 146 147 145 146 147 143 140 139 138 134 131 128 123 117 112 113 112 112 116 111 104
222 242 251 291 319 319 333 316 313 286 255 233 211 70 98 108 119 130 153 159 145 135 123 120 111 112 110 131 136 143 142 143 150 147 148 152 148 137 132 130 129 125 119 116 118 128 129 123 126
220 244 274 302 332 337 320 307 313 275 271 263 235 154 118 130 156 172 193 182 158 143 125 127 121 111 114 108 129 131 140 147 155 152 157 154 140 132 131 132 133 131 127 122 124 132 149 132 114
260 275 286 301 326 320 304 301 292 273 288 334 340 151 153 179 199 203 197 166 140 136 127 118 111 112 116 112 129 137 133 132 139 161 160 150 137 133 134 138 148 148 146 136 132 134 121 100 91
247 264 279 293 307 301 301 286 280 278 299 319 329 230 179 193 200 212 206 168 141 142 142 137 132 130 117 130 140 147 147 138 141 148 163 156 145 150 150 149 146 143 141 137 133 124 106 94 90
275 281 280 281 280 279 282 278 269 265 270 279 268 241 202 203 203 207 190 187 187 160 153 146 151 142 129 152 159 152 153 141 139 139 149 159 155 152 152 147 144 142 143 140 135 121 108 98 86
286 275 267 253 250 253 283 275 252 259 257 256 245 237 209 202 198 204 205 201 196 184 156 159 157 138 152 159 159 137 124 120 123 136 146 150 149 146 147 147 142 136 138 135 119 109 104 105 92
256 253 254 237 227 215 230 267 267 240 233 246 248 240 210 199 198 196 197 196 179 168 167 176 171 139 142 142 153 138 116 112 107 123 138 147 145 146 145 148 148 139 135 126 123 129 125 117 117
229 248 249 246 212 202 220 261 274 221 229 234 244 242 217 199 195 184 168 175 170 165 165 174 167 166 149 145 151 142 125 123 116 122 124 134 143 153 149 152 153 147 140 140 148 139 137 136 125
253 259 266 255 218 230 237 256 268 243 236 244 242 240 230 209 203 178 152 141 144 143 148 153 151 171 153 137 151 146 127 128 115 111 117 135 146 151 144 146 150 147 144 148 144 142 136 140 145
292 288 287 289 287 267 260 267 267 248 240 253 252 244 233 222 199 150 123 131 124 114 116 139 155 165 157 151 167 168 168 161 150 130 127 137 142 151 149 149 151 151 155 161 151 145 142 149 145
278 279 287 297 287 281 277 272 268 249 237 245 256 268 257 234 192 165 140 113 119 126 125 130 144 183 177 173 165 162 160 162 155 135 140 144 153 157 159 155 161 160 159 157 156 153 154 176 168
270 268 279 290 308 279 281 281 255 242 237 245 247 253 257 249 218 166 154 144 126 123 137 156 177 199 186 162 137 127 123 116 126 145 153 136 130 136 160 164 159 168 163 167 168 169 165 176 202
270 286 282 285 287 274 244 279 268 234 228 227 231 237 238 240 212 165 161 156 163 158 122 120 138 196 176 160 152 151 159 165 176 160 157 150 138 138 136 143 156 166 161 168 178 176 170 161 183
281 310 281 270 262 277 255 253 275 235 239 225 212 225 227 193 145 130 137 165 162 130 137 142 149 185 148 160 158 154 159 162 149 147 152 155 145 145 142 135 130 162 167 173 179 174 171 171 177
288 286 278 265 251 259 239 226 276 232 238 223 202 222 219 134 101 97 94 101 95 97 127 150 149 182 174 180 184 179 169 162 152 156 160 158 153 152 138 132 136 136 156 178 179 175 175 176 173
284 304 278 251 234 249 224 217 252 260 243 197 189 202 166 132 112 96 95 99 94 144 151 157 147 187 188 184 197 198 174 167 167 169 167 162 158 161 166 147 149 142 138 151 163 174 176 174 173
240 225 217 242 257 269 243 231 239 31 64 54 61 84 92 98 97 95 94 131 139 154 158 147 160 186 191 183 194 189 169 167 168 166 162 161 164 167 157 152 148 139 133 132 146 167 175 171 171
231 231 254 274 289 281 247 239 227 47 34 33 39 49 55 70 82 93 85 63 75 72 106 145 175 191 197 203 197 180 173 168 164 160 149 143 143 150 148 149 140 134 130 130 141 147 163 164 169
242 251 211 221 262 268 263 231 246 330 331 13 41 50 66 68 71 75 73 50 46 64 47 84 155 186 188 192 215 180 156 150 142 144 151 144 137 132 141 135 130 124 127 133 122 130 133 125 158
206 225 232 236 248 258 277 264 348 152 90 33 42 52 61 69 68 66 52 43 34 31 29 357 256 191 181 186 210 162 142 141 142 144 150 144 134 133 139 137 137 138 135 130 130 142 137 151 157
220 216 200 219 249 241 262 275 349 69 72 46 34 36 39 42 44 59 58 45 30 23 13 356 332 20 116 170 164 156 131 124 135 140 137 132 134 135 135 139 144 147 141 142 144 151 146 157 167
Height
1500 1501 1504 1506 1508 1507 1501 1491 1483 1484 1485 1487 1488 1489 1492 1495 1499 1509 1509 1507 1507 1507 1508 1510 1512 1514 1516 1517 1519 1520 1522 1523 1524 1525 1526 1527 1528 1529 1530 1530 1531 1532 1533 1534 1534 1534 1535 1535 1535
1499 1502 1505 1505 1506 1507 1497 1486 1484 1484 1486 1488 1490 1492 1493 1497 1500 1503 1505 1506 1507 1507 1508 1510 1512 1514 1515 1517 1519 1520 1522 1523 1524 1525 1526 1527 1528 1529 1530 1531 1532 1533 1533 1534 1535 1535 1535 1536 1536
1499 1502 1504 1502 1500 1498 1492 1483 1483 1485 1487 1489 1492 1493 1496 1500 1502 1503 1504 1506 1507 1507 1508 1510 1512 1513 1515 1517 1519 1520 1522 1523 1524 1525 1526 1527 1529 1530 1530 1531 1532 1533 1534 1534 1535 1536 1536 1537 1537
1501 1503 1502 1501 1496 1488 1486 1484 1484 1486 1488 1490 1492 1495 1498 1502 1502 1503 1504 1505 1507 1507 1508 1510 1512 1513 1515 1517 1518 1520 1521 1523 1524 1525 1526 1527 1529 1530 1531 1531 1532 1533 1534 1534 1535 1536 1536 1537 1537
1501 1501 1500 1498 1493 1487 1484 1484 1485 1487 1489 1491 1493 1495 1498 1501 1501 1502 1503 1505 1506 1507 1508 1509 1511 1513 1514 1516 1518 1519 1521 1522 1524 1525 1526 1527 1528 1529 1531 1532 1532 1533 1534 1534 1535 1536 1537 1537 1538
1501 1498 1499 1497 1490 1485 1484 1485 1486 1487 1489 1492 1494 1495 1498 1500 1500 1502 1503 1505 1506 1507 1507 1509 1511 1512 1514 1515 1517 1519 1520 1522 1523 1524 1525 1527 1528 1529 1530 1531 1532 1533 1534 1534 1535 1536 1537 1537 1538
1500 1497 1495 1491 1488 1485 1484 1484 1486 1488 1489 1492 1494 1495 1497 1499 1500 1501 1503 1504 1505 1506 1507 1508 1510 1511 1513 1515 1516 1518 1519 1521 1522 1523 1525 1526 1527 1528 1530 1531 1532 1533 1534 1534 1535 1536 1537 1537 1538
1497 1496 1492 1490 1488 1486 1485 1485 1487 1488 1490 1492 1493 1495 1496 1498 1499 1500 1502 1503 1504 1505 1506 1507 1508 1510 1512 1513 1515 1517 1518 1520 1521 1523 1524 1525 1527 1528 1529 1530 1531 1532 1533 1534 1535 1536 1536 1537 1538
1497 1499 1494 1489 1487 1486 1485 1486 1488 1489 1490 1492 1493 1495 1496 1496 1498 1499 1501 1502 1503 1504 1505 1506 1507 1508 1510 1512 1513 1515 1517 1518 1520 1521 1523 1524 1526 1527 1528 1529 1530 1532 1533 1534 1534 1535 1536 1537 1538
1496 1497 1491 1488 1487 1486 1486 1487 1488 1489 1490 1491 1493 1494 1495 1495 1496 1497 1499 1500 1501 1502 1503 1504 1505 1507 1508 1510 1511 1513 1514 1516 1518 1519 1521 1523 1524 1526 1527 1528 1529 1530 1532 1533 1533 1534 1535 1536 1537
1493 1493 1489 1489 1488 1488 1488 1488 1489 1489 1490 1491 1492 1492 1493 1494 1495 1496 1498 1499 1500 1501 1502 1503 1504 1505 1506 1507 1509 1510 1512 1514 1516 1518 1519 1521 1523 1524 1525 1526 1528 1529 1530 1531 1532 1533 1534 1535 1536
1492 1490 1490 1490 1490 1490 1490 1489 1489 1489 1490 1490 1490 1490 1491 1492 1493 1494 1496 1498 1498 1499 1500 1501 1502 1503 1504 1505 1506 1508 1510 1512 1514 1515 1517 1519 1520 1522 1523 1524 1526 1527 1528 1530 1531 1532 1532 1534 1535
1491 1490 1490 1490 1490 1490 1490 1489 1489 1488 1489 1488 1488 1488 1488 1490 1491 1493 1495 1495 1496 1497 1498 1499 1500 1501 1502 1503 1504 1505 1507 1509 1511 1513 1515 1517 1518 1519 1521 1523 1524 1525 1527 1528 1529 1530 1531 1532 1533
1490 1490 1490 1489 1489 1490 1490 1488 1488 1486 1487 1487 1487 1486 1487 1487 1489 1490 1492 1492 1493 1494 1495 1497 1497 1498 1499 1500 1502 1503 1505 1506 1509 1510 1512 1514 1516 1517 1519 1520 1522 1524 1525 1527 1528 1529 1530 1531 1532
1490 1490 1489 1487 1488 1488 1489 1487 1485 1484 1485 1484 1484 1484 1485 1485 1486 1488 1489 1490 1491 1492 1493 1494 1495 1496 1497 1498 1499 1500 1502 1504 1506 1508 1510 1512 1513 1515 1517 1518 1520 1522 1523 1525 1526 1527 1529 1530 1531
1490 1490 1490 1484 1484 1485 1490 1488 1481 1481 1481 1482 1482 1482 1482 1483 1484 1485 1487 1488 1489 1490 1490 1491 1492 1493 1494 1495 1496 1497 1499 1501 1503 1505 1507 1509 1510 1512 1514 1516 1518 1520 1521 1522 1524 1525 1526 1528 1529
1489 1490 1486 1483 1481 1483 1486 1485 1479 1478 1478 1479 1480 1480 1480 1480 1481 1482 1483 1485 1486 1487 1487 1488 1489 1490 1491 1492 1493 1495 1496 1498 1500 1502 1504 1506 1508 1510 1512 1513 1515 1517 1519 1520 1521 1523 1524 1525 1526
1490 1487 1482 1481 1480 1481 1483 1481 1478 1477 1477 1477 1477 1477 1477 1478 1478 1480 1481 1482 1483 1483 1484 1485 1486 1487 1489 1490 1491 1492 1493 1495 1497 1499 1501 1503 1505 1507 1509 1511 1513 1514 1516 1517 1519 1520 1522 1523 1524
1485 1485 1484 1480 1479 1481 1480 1478 1476 1474 1474 1474 1474 1475 1475 1475 1477 1478 1478 1479 1480 1481 1481 1482 1483 1484 1485 1487 1487 1488 1490 1492 1494 1496 1498 1500 1502 1504 1506 1508 1510 1511 1513 1514 1516 1518 1519 1521 1522
1486 1486 1484 1480 1480 1480 1479 1477 1472 1471 1471 1472 1472 1472 1472 1473 1474 1474 1475 1476 1477 1478 1478 1479 1480 1481 1482 1484 1485 1486 1488 1489 1491 1494 1495 1497 1499 1501 1503 1505 1507 1508 1510 1511 1513 1515 1516 1518 1520
1486 1487 1486 1484 1482 1479 1480 1476 1470 1467 1468 1469 1469 1469 1470 1470 1470 1471 1472 1473 1474 1475 1476 1476 1477 1479 1480 1481 1482 1483 1485 1486 1489 1490 1492 1494 1496 1498 1500 1502 1504 1505 1507 1508 1510 1511 1513 1514 1517
1487 1484 1484 1484 1487 1486 1482 1485 1467 1464 1464 1464 1465 1466 1467 1468 1468 1468 1469 1470 1471 1472 1473 1474 1475 1476 1477 1479 1479 1480 1482 1484 1485 1487 1489 1491 1493 1495 1497 1499 1501 1502 1504 1505 1507 1509 1510 1512 1513
1486 1484 1483 1483 1485 1487 1482 1484 1472 1462 1463 1461 1462 1463 1464 1465 1466 1466 1466 1468 1469 1470 1471 1471 1473 1474 1475 1476 1477 1479 1480 1482 1484 1485 1487 1488 1490 1492 1494 1496 1498 1499 1501 1503 1504 1505 1507 1508 1510
1485 1485 1483 1482 1485 1490 1479 1480 1473 1464 1460 1459 1460 1461 1462 1463 1463 1464 1465 1466 1466 1467 1468 1469 1470 1472 1473 1474 1475 1477 1478 1480 1481 1482 1483 1485 1487 1489 1491 1493 1494 1496 1498 1499 1501 1502 1504 1505 1507
1487 1491 1493 1491 1490 1483 1469 1473 1470 1459 1456 1457 1458 1459 1460 1461 1461 1462 1463 1463 1464 1465 1466 1467 1468 1469 1470 1472 1473 1474 1476 1477 1479 1480 1481 1482 1484 1485 1488 1490 1491 1493 1494 1496 1498 1499 1500 1502 1503
1488 1490 1496 1495 1487 1478 1470 1471 1465 1458 1456 1457 1458 1458 1459 1459 1460 1461 1462 1462 1463 1463 1464 1465 1466 1467 1468 1469 1471 1472 1473 1475 1476 1478 1479 1480 1482 1483 1485 1487 1488 1489 1491 1492 1494 1495 1497 1498 1500
1487 1488 1486 1491 1487 1485 1473 1463 1459 1458 1458 1458 1458 1459 1459 1460 1460 1460 1461 1461 1461 1461 1462 1463 1464 1464 1465 1466 1468 1469 1471 1472 1474 1475 1477 1478 1480 1481 1482 1484 1485 1486 1488 1489 1491 1492 1494 1495 1496
1485 1485 1490 1493 1491 1484 1470 1465 1466 1463 1460 1459 1459 1458 1459 1460 1460 1460 1460 1461 1461 1460 1461 1462 1462 1463 1463 1464 1466 1467 1468 1470 1471 1472 1474 1475 1477 1478 1479 1480 1482 1483 1485 1486 1487 1488 1490 1491 1492
1485 1487 1487 1487 1486 1486 1479 1470 1459 1459 1459 1459 1459 1459 1459 1460 1460 1460 1460 1460 1460 1460 1460 1460 1460 1460 1461 1462 1463 1464 1466 1467 1469 1470 1471 1472 1474 1475 1476 1478 1479 1481 1482 1483 1484 1486 1486 1488 1489
1480 1482 1486 1492 1489 1484 1483 1476 1457 1456 1458 1459 1460 1460 1460 1460 1460 1459 1459 1459 1459 1459 1458 1458 1458 1458 1458 1460 1461 1462 1463 1464 1466 1467 1468 1469 1471 1472 1474 1475 1476 1477 1479 1480 1481 1482 1483 1484 1485